This is the latest recevied weather packets stored in our database for station/object S55YIZ-7. If no packets are shown the sender has not sent any weather packets the latest 10 day(s).
| Time | Temp. | Humidity | Pressure | Rain* | Wind** | Luminosity | Snow |
|---|---|---|---|---|---|---|---|
| 1777301657 | 25° C | 37% | 1017.8 hPa | - | - | - | - |
| 1777300757 | 25° C | 37% | 1018 hPa | - | - | - | - |
| 1777299857 | 25.56° C | 34% | 1018 hPa | - | - | - | - |
| 1777298957 | 25.56° C | 34% | 1018.2 hPa | - | - | - | - |
| 1777298057 | 25.56° C | 33% | 1018.4 hPa | - | - | - | - |
| 1777297156 | 24.44° C | 36% | 1018.6 hPa | - | - | - | - |
| 1777296255 | 24.44° C | 37% | 1018.7 hPa | - | - | - | - |
| 1777295412 | 24.44° C | 35% | 1018.9 hPa | - | - | - | - |
| 1777295355 | 24.44° C | 35% | 1018.9 hPa | - | - | - | - |
| 1777294455 | 25.56° C | 34% | 1018.8 hPa | - | - | - | - |
| 1777293555 | 27.22° C | 34% | 1018.9 hPa | - | - | - | - |
| 1777292655 | 27.78° C | 33% | 1019.1 hPa | - | - | - | - |
| 1777291795 | 27.22° C | 34% | 1019.3 hPa | - | - | - | - |
| 1777291755 | 27.22° C | 34% | 1019.3 hPa | - | - | - | - |
| 1777290855 | 26.67° C | 32% | 1019.2 hPa | - | - | - | - |
| 1777289955 | 28.33° C | 31% | 1019.3 hPa | - | - | - | - |
| 1777289054 | 27.78° C | 30% | 1019.3 hPa | - | - | - | - |
| 1777288154 | 28.33° C | 30% | 1019.4 hPa | - | - | - | - |
| 1777287254 | 28.33° C | 29% | 1019.5 hPa | - | - | - | - |
| 1777286354 | 28.33° C | 29% | 1019.6 hPa | - | - | - | - |
| 1777285454 | 28.33° C | 33% | 1019.8 hPa | - | - | - | - |
| 1777284554 | 28.33° C | 31% | 1019.8 hPa | - | - | - | - |
| 1777283654 | 28.33° C | 32% | 1019.8 hPa | - | - | - | - |
| 1777282754 | 27.22° C | 32% | 1019.8 hPa | - | - | - | - |
| 1777281854 | 26.11° C | 33% | 1020.1 hPa | - | - | - | - |
* Rain since midnight (hover to see other rain measurements)
** Current wind speed in m/s (hover to see current wind gust speed)